Weather reports worldwide

Advertisment
Stonyhurst, United Kingdom (99060): temperature & dewpoint: 18.11.2017 18:00:00 - 24.11.2017 18:00:00 (GMT)Stonyhurst, United Kingdom (99060): precipitation: 18.11.2017 18:00:00 - 24.11.2017 18:00:00 (GMT)
Date & Time tt [°C] td [°C] rr [mm]
24.11.2017 18:00:00 2,0 1,4 0,8
24.11.2017 17:00:00 2,3 1,3 2,0
24.11.2017 16:00:00 - - 0,4
24.11.2017 15:00:00 5,7 -0,2 0,0
24.11.2017 14:00:00 7,2 0,6 0,0
24.11.2017 13:00:00 6,5 2,3 0,0
24.11.2017 12:00:00 - - 0,0
24.11.2017 11:00:00 5,4 1,4 0,0
24.11.2017 10:00:00 3,8 0,9 0,0
24.11.2017 09:00:00 1,6 0,7 0,0
24.11.2017 08:00:00 1,0 0,3 0,0
24.11.2017 07:00:00 1,3 0,5 0,0
24.11.2017 06:00:00 1,9 1,0 0,0
24.11.2017 05:00:00 1,4 -0,3 0,0
24.11.2017 04:00:00 2,8 0,6 0,0
24.11.2017 03:00:00 1,9 0,9 0,0
24.11.2017 02:00:00 1,8 0,4 0,0
24.11.2017 01:00:00 3,6 1,3 0,2
24.11.2017 00:00:00 2,9 1,2 0,0
23.11.2017 23:00:00 2,9 0,9 0,0
23.11.2017 22:00:00 2,7 0,9 0,0
23.11.2017 21:00:00 3,0 0,9 0,0
23.11.2017 20:00:00 4,4 1,3 0,0
23.11.2017 19:00:00 4,9 1,5 0,0
23.11.2017 18:00:00 5,8 2,5 0,4
23.11.2017 17:00:00 6,3 2,7 0,0
23.11.2017 16:00:00 6,4 2,5 0,0
23.11.2017 15:00:00 6,4 2,6 0,0
23.11.2017 14:00:00 7,0 3,2 0,0
23.11.2017 13:00:00 6,2 5,0 1,4
23.11.2017 12:00:00 7,5 4,2 0,6
23.11.2017 11:00:00 5,8 3,4 0,6
23.11.2017 10:00:00 6,5 1,9 0,0
23.11.2017 09:00:00 5,6 2,7 0,0
23.11.2017 08:00:00 5,1 3,3 0,2
23.11.2017 07:00:00 4,4 2,5 0,0
23.11.2017 06:00:00 4,7 3,0 0,0
23.11.2017 05:00:00 5,1 4,1 0,4
23.11.2017 04:00:00 5,8 4,7 -
23.11.2017 03:00:00 - - 0,4
23.11.2017 02:00:00 9,3 8,9 0,0
23.11.2017 01:00:00 9,4 8,9 -
23.11.2017 00:00:00 9,4 8,5 0,2
22.11.2017 23:00:00 10,8 9,7 5,4
22.11.2017 22:00:00 12,2 10,1 0,4
22.11.2017 21:00:00 12,4 10,8 1,6
22.11.2017 20:00:00 12,7 11,2 1,8
22.11.2017 19:00:00 12,3 11,7 4,4
22.11.2017 18:00:00 13,0 11,7 2,0
22.11.2017 17:00:00 13,5 11,7 1,6
22.11.2017 16:00:00 - - 1,8
22.11.2017 15:00:00 13,8 11,5 0,4
22.11.2017 14:00:00 13,5 11,2 0,0
22.11.2017 13:00:00 14,1 10,8 0,2
22.11.2017 12:00:00 13,3 11,2 0,2
22.11.2017 11:00:00 13,2 11,4 1,2
22.11.2017 10:00:00 12,6 11,5 0,6
22.11.2017 09:00:00 12,5 10,8 0,2
22.11.2017 08:00:00 12,3 10,6 0,2
22.11.2017 07:00:00 11,4 11,0 0,2
22.11.2017 06:00:00 9,5 9,0 2,0
22.11.2017 05:00:00 9,9 9,0 1,4
22.11.2017 04:00:00 10,9 10,2 2,0
22.11.2017 03:00:00 11,4 11,0 0,6
22.11.2017 02:00:00 11,6 11,0 2,0
22.11.2017 01:00:00 11,9 11,1 0,0
22.11.2017 00:00:00 12,1 11,3 0,0
21.11.2017 23:00:00 12,2 11,6 -
21.11.2017 22:00:00 12,0 11,5 1,4
21.11.2017 21:00:00 12,1 11,6 1,2
21.11.2017 20:00:00 12,1 11,7 0,8
21.11.2017 19:00:00 11,9 11,4 1,2
21.11.2017 18:00:00 11,5 11,0 0,8
21.11.2017 17:00:00 11,2 10,6 2,0
21.11.2017 16:00:00 11,0 9,7 0,2
21.11.2017 15:00:00 11,5 9,0 0,0
21.11.2017 14:00:00 11,7 9,2 0,0
21.11.2017 13:00:00 11,8 10,2 0,0
21.11.2017 12:00:00 11,4 10,5 0,0
21.11.2017 11:00:00 11,3 10,7 -
21.11.2017 10:00:00 11,6 11,2 0,2
21.11.2017 09:00:00 11,7 11,4 0,0
21.11.2017 08:00:00 11,8 11,4 0,0
21.11.2017 07:00:00 11,9 11,5 0,6
21.11.2017 06:00:00 12,0 11,7 1,6
21.11.2017 05:00:00 11,9 11,5 6,6
21.11.2017 04:00:00 11,9 11,6 5,6
21.11.2017 03:00:00 12,0 11,7 3,6
21.11.2017 02:00:00 10,8 10,4 3,2
21.11.2017 01:00:00 11,0 10,6 1,8
21.11.2017 00:00:00 11,4 10,9 0,8
20.11.2017 23:00:00 11,4 11,0 0,4
20.11.2017 22:00:00 - - 0,0
20.11.2017 21:00:00 11,0 10,5 0,2
20.11.2017 20:00:00 10,9 10,3 0,2
20.11.2017 19:00:00 11,1 10,4 0,4
20.11.2017 18:00:00 11,2 10,5 0,2
20.11.2017 17:00:00 11,3 10,5 0,6
20.11.2017 16:00:00 11,4 10,5 0,4
20.11.2017 15:00:00 11,5 10,6 0,2
20.11.2017 14:00:00 11,7 10,8 0,4
20.11.2017 13:00:00 11,7 10,9 1,2
20.11.2017 12:00:00 11,6 11,0 0,6
20.11.2017 11:00:00 11,4 10,9 1,6
20.11.2017 10:00:00 11,3 10,8 0,2
20.11.2017 09:00:00 11,1 10,7 0,8
20.11.2017 08:00:00 10,9 10,6 1,2
20.11.2017 07:00:00 10,7 10,4 0,8
20.11.2017 06:00:00 8,8 8,5 3,2
20.11.2017 05:00:00 8,3 8,0 3,0
20.11.2017 04:00:00 7,3 6,9 1,2
20.11.2017 03:00:00 - - 0,4
20.11.2017 02:00:00 6,3 5,8 -
20.11.2017 01:00:00 5,9 5,1 2,0
20.11.2017 00:00:00 6,1 4,6 0,0
19.11.2017 23:00:00 6,1 4,1 0,0
19.11.2017 22:00:00 5,7 3,3 0,0
19.11.2017 21:00:00 5,6 1,8 -
19.11.2017 20:00:00 5,5 1,4 0,0
19.11.2017 19:00:00 5,1 1,3 0,0
19.11.2017 18:00:00 5,1 1,9 0,0
19.11.2017 17:00:00 5,3 1,6 0,0
19.11.2017 16:00:00 5,7 1,0 0,0
19.11.2017 15:00:00 6,3 0,5 0,0
19.11.2017 14:00:00 6,7 -0,3 0,0
19.11.2017 13:00:00 6,6 0,6 0,0
19.11.2017 12:00:00 - - 0,0
19.11.2017 11:00:00 4,3 -0,7 0,0
19.11.2017 10:00:00 2,8 -1,2 0,0
19.11.2017 09:00:00 0,1 -1,7 0,0
19.11.2017 08:00:00 -0,6 -2,3 0,0
19.11.2017 07:00:00 -0,6 -2,2 0,0
19.11.2017 06:00:00 0,7 -1,9 0,0
19.11.2017 05:00:00 0,3 -2,4 0,0
19.11.2017 04:00:00 1,2 -1,2 0,0
19.11.2017 03:00:00 1,6 -1,7 0,0
19.11.2017 02:00:00 1,9 -1,7 -
19.11.2017 01:00:00 1,6 -1,1 0,0
19.11.2017 00:00:00 2,3 -1,0 0,0
18.11.2017 23:00:00 2,7 -0,9 0,0
18.11.2017 22:00:00 4,6 -0,1 0,0
18.11.2017 21:00:00 5,4 0,5 0,0
18.11.2017 20:00:00 5,6 1,5 0,0
18.11.2017 19:00:00 6,3 1,6 0,0
18.11.2017 18:00:00 6,6 1,8 0,0

tt = temperature
td = dewpoint
rr = precipitation

Next stations